GW5481 Weather Reports


time (UTC)temp
C
wind
direction
speed
KPH
gust
KPH
rain 1hr
cm
rain 24hr
cm
rain mn
cm
humidity
%
barometer
mb
20260505041509 10 49 0.0 3.2 0.00 0.00 0.00 57 979.4
20260505040008 10 49 0.0 3.2 0.00 0.00 0.00 57 979.4
20260505034506 10 49 0.0 3.2 0.00 0.00 0.00 55 979.4
20260505033004 10 49 1.6 8.0 0.00 0.00 0.00 54 978.8
20260505031503 11 48 1.6 4.8 0.00 0.00 0.00 54 979.0
20260505030002 11 46 0.0 0.0 0.00 0.00 0.00 56 978.8
20260505024504 11 46 1.6 4.8 0.00 0.00 0.00 53 978.4
20260505023003 12 59 0.0 4.8 0.00 0.00 0.00 50 978.3
20260505021600 12 59 0.0 9.7 0.00 0.00 0.00 48 978.2
20260505020100 12 321 0.0 3.2 0.00 0.00 0.00 48 978.2
20260505014559 12 321 0.0 6.4 0.00 0.00 0.00 48 977.5
20260505013126 12 304 1.6 6.4 0.00 0.00 0.00 47 977.5
20260505011624 13 65 1.6 4.8 0.00 0.00 0.00 46 977.1
20260505010113 13 14 3.2 9.7 0.00 0.00 0.00 44 977.1
20260505004558 14 9 1.6 12.9 0.00 0.00 0.00 43 977.0
20260505003103 15 355 3.2 9.7 0.00 0.00 0.00 41 976.7
20260505001556 16 11 3.2 8.0 0.00 0.00 0.00 36 976.5
20260505000105 16 325 3.2 14.5 0.00 0.00 0.00 35 976.5
20260504234554 16 355 3.2 12.9 0.00 0.00 0.00 34 976.3
20260504233104 17 334 6.4 16.1 0.00 0.00 0.00 32 976.2
20260504231554 17 49 4.8 16.1 0.00 0.00 0.00 31 975.8
20260504224552 18 340 3.2 8.0 0.00 0.00 0.00 26 975.3
20260504223059 18 360 4.8 12.9 0.00 0.00 0.00 27 975.0
20260504221551 19 5 4.8 17.7 0.00 0.00 0.00 26 974.9
20260504220051 20 315 4.8 9.7 0.00 0.00 0.00 23 974.8
20260504214606 21 30 1.6 9.7 0.00 0.00 0.00 23 974.8
20260504213056 20 22 3.2 12.9 0.00 0.00 0.00 24 975.0
20260504211551 19 61 0.0 14.5 0.00 0.00 0.00 25 975.4
20260504210046 19 355 3.2 12.9 0.00 0.00 0.00 25 975.4
20260504204550 20 91 4.8 9.7 0.00 0.00 0.00 25 975.8
20260504203045 20 44 3.2 12.9 0.00 0.00 0.00 24 975.9
20260504201558 20 22 4.8 17.7 0.00 0.00 0.00 25 976.1
20260504200143 19 192 8.0 25.7 0.00 0.00 0.00 24 975.8
20260504194548 20 344 0.0 6.4 0.00 0.00 0.00 23 975.7
20260504193040 20 59 0.0 3.2 0.00 0.00 0.00 22 975.6
20260504191548 21 69 1.6 6.4 0.00 0.00 0.00 20 975.4
20260504190140 21 71 0.0 4.8 0.00 0.00 0.00 20 975.5
20260504184552 21 168 3.2 9.7 0.00 0.00 0.00 20 975.5
20260504183036 22 242 1.6 11.3 0.00 0.00 0.00 19 975.7
20260504181537 23 360 3.2 12.9 0.00 0.00 0.00 19 975.9
20260504180032 22 95 1.6 14.5 0.00 0.00 0.00 20 975.9
20260504174530 22 236 4.8 14.5 0.00 0.00 0.00 21 976.3
20260504173032 22 302 4.8 17.7 0.00 0.00 0.00 21 976.6
20260504171528 22 287 8.0 17.7 0.00 0.00 0.00 21 976.6
20260504081502 8 153 0.0 0.0 0.00 0.00 0.00 46 978.2
20260504044531 14 301 0.0 1.6 0.00 0.00 0.00 31 979.3
20260504043030 15 301 1.6 6.4 0.00 0.00 0.00 31 979.6